[[{"header":{"parameterUnit":"m.s-1","parameterCategory":1,"la1":30.2991,"la2":30.254,"lo1":-89.0895,"lo2":-89.0444,"dy":0.0017,"dx":0.0017,"nx":28,"ny":28,"refTime":"2024-06-25T09:00:00:Z","depth":0,"parameterNumber":2,"parameterNumberName":"U-component_of_WINDS"},"data":[0,0,0,0,0,0,0,0,0,0,0,0,0,0,0,0,0,0,0,0,0,0,0,0,0,0,0,0,0,0,0,0,0,0,0,0,0,0,0,0,0,0,0,0,0,0,0,0,0,0,0,0,0,0,0,0,0,0,1.4749,1.475,0,1.4836,1.4837,1.4838,1.4814,1.4812,1.481,1.4809,1.4902,1.4906,1.491,0,0,0,0,0,0,0,0,0,0,0,0,0,1.4562,1.4566,1.4749,1.475,1.4751,1.4836,1.4837,1.4839,1.4814,1.4812,1.481,1.4808,1.4901,1.4906,1.4911,0,0,0,0,0,0,0,0,0,0,0,0,0,1.4646,1.4567,1.4749,1.4749,1.475,1.4836,1.4837,1.4839,1.4815,1.4812,1.4809,1.4807,1.4899,1.4905,1.4911,1.5003,0,0,1.493,1.4933,0,0,0,0,0,0,0,0,1.4641,1.4653,1.4748,1.4749,1.475,1.4811,1.4806,1.4894,1.4815,1.479,1.4809,1.4806,1.4874,1.4882,1.4905,1.5008,1.5012,1.4931,1.4935,1.4937,1.4939,0,0,0,0,0,0,0,1.4635,1.4649,1.4783,1.4749,1.4751,1.4745,1.4754,1.4822,1.4846,1.4792,1.4791,1.4801,1.4874,1.4899,1.4907,1.5013,1.4931,1.4936,1.494,1.4942,1.5196,1.5198,0,0,0,0,0,0,1.4628,1.4644,1.4781,1.4786,1.4688,1.4751,1.4761,1.4795,1.4846,1.4851,1.4803,1.48,1.489,1.49,1.491,1.5022,1.4937,1.4943,1.4947,1.5193,1.5196,1.52,0,0,0,0,0,0,1.4624,1.4641,1.4777,1.4715,1.4732,1.4757,1.4795,1.4798,1.4822,1.4854,1.4858,1.4824,1.4888,1.4901,1.498,1.5025,1.4946,1.4952,1.5189,1.5194,1.5198,1.5246,0,0,0,0,0,0,1.4619,1.4639,1.4675,1.4716,1.4735,1.4846,1.4798,1.4801,1.4833,1.4829,1.4874,1.4879,1.4887,1.4971,1.4986,1.5032,1.4956,1.5185,1.5191,1.5197,1.5241,1.5252,1.5261,0,0,0,0,0,1.4613,1.4685,1.4676,1.4693,1.4779,1.4848,1.4859,1.4865,1.4836,1.4872,1.4892,1.4878,1.5016,1.4979,1.4996,1.5045,1.5183,1.519,1.5196,1.5236,1.5249,1.5261,0,0,0,0,0,0,1.4651,1.4691,1.4682,1.477,1.4805,1.4844,1.4889,1.4879,1.4925,1.492,1.4926,1.4937,1.5017,1.5038,1.4996,1.5136,1.5095,1.5106,1.512,1.5133,1.5143,1.5138,1.4962,0,0,0,0,0,1.4669,1.4721,1.4753,1.4828,1.4846,1.4864,1.4895,1.4896,1.4934,1.4949,1.4975,1.5013,1.5065,1.51,1.5149,1.5242,1.5252,1.5284,1.5294,1.5302,1.5312,1.5363,1.5378,1.5222,1.5222,1.5221,0,0,1.4708,1.4737,1.4769,1.4836,1.4864,1.4918,1.4878,1.4937,1.4977,1.4959,1.5035,1.5055,1.5097,1.5184,1.5223,1.5204,1.5357,1.5311,1.5317,1.5323,1.5371,1.5386,1.5399,1.5226,1.5225,1.5225,0,0,1.4808,1.4834,1.4899,1.4927,1.4969,1.498,1.4996,1.5035,1.5048,1.5123,1.511,1.5158,1.5248,1.5279,1.5307,1.5415,1.5404,1.5431,1.5485,1.5535,1.5547,1.5558,1.5598,1.5612,1.544,1.544,1.544,0,1.4852,1.4933,1.4934,1.4994,1.5024,1.5007,1.5074,1.5101,1.5158,1.5179,1.5156,1.5267,1.5295,1.5388,1.5414,1.5437,1.5455,1.5427,1.5545,1.5556,1.5566,1.5605,1.562,1.5443,1.5443,1.5442,1.5442,0,1.4985,1.5041,1.5088,1.5142,1.5177,1.524,1.5252,1.5287,1.5284,1.5298,1.5375,1.5407,1.5463,1.5484,1.5483,1.5577,1.5564,1.5543,1.5503,1.5584,1.562,1.5635,1.5447,1.5446,1.5445,1.5445,0,0,1.5116,1.5166,1.5184,1.5208,1.5252,1.5295,1.5357,1.541,1.544,1.5479,1.5532,1.5606,1.5586,1.5618,1.5619,1.5662,1.5747,1.5635,1.5637,1.5657,1.5855,1.5872,1.5889,1.5739,1.5741,1.5744,1.5852,0,1.522,1.5328,1.533,1.543,1.5482,1.5464,1.5518,1.5551,1.5565,1.5611,1.5626,1.568,1.5648,1.5667,1.5709,1.5728,1.5787,1.572,1.579,1.5792,1.5782,1.5908,1.5928,1.6028,1.5866,1.5868,1.587,0,1.5359,1.54,1.5504,1.5539,1.5561,1.5609,1.5657,1.5701,1.5738,1.5745,1.5778,1.5772,1.5836,1.5791,1.5879,1.5833,1.5861,1.5874,1.5878,1.5888,1.5838,1.5923,1.606,1.6077,1.5892,1.589,1.5888,0,1.5445,1.5527,1.56,1.562,1.5662,1.5697,1.5716,1.575,1.5781,1.5823,1.5843,1.5892,1.592,1.5959,1.5966,1.5933,1.6055,1.6011,1.6064,1.6064,1.6094,1.6092,1.624,1.6107,1.6107,1.6107,1.6106,0,1.5564,1.563,1.5639,1.5685,1.5756,1.5757,1.5829,1.5845,1.5875,1.5924,1.5911,1.5957,1.5963,1.6011,1.6017,1.609,1.6102,1.611,1.6112,1.6113,1.6113,1.6134,1.6129,1.6111,1.611,1.6109,1.6108,0,1.5676,1.5684,1.5763,1.5795,1.5804,1.5856,1.5884,1.5928,1.5938,1.6,1.6015,1.6032,1.6088,1.6098,1.6164,1.6168,1.6255,1.6248,1.6243,1.6243,1.6297,1.6293,1.6466,1.649,1.6339,1.634,1.6341,0,1.5753,1.5802,1.5838,1.5869,1.589,1.594,1.5971,1.5973,1.6006,1.605,1.6088,1.6141,1.6185,1.6274,1.6294,1.6343,1.6339,1.6396,1.6347,1.6347,1.6343,1.6341,1.6347,1.6407,1.6409,1.641,1.6411,0,1.5889,1.589,1.5935,1.5981,1.6018,1.6055,1.609,1.6116,1.6122,1.616,1.6215,1.6248,1.6314,1.6368,1.6417,1.6438,1.6427,1.6426,1.6441,1.6445,1.6441,1.6446,1.6272,1.6423,1.6422,1.6421,1.642,1.642,1.5987,1.603,1.6062,1.6112,1.6137,1.617,1.6212,1.6227,1.6273,1.6326,1.6323,1.6384,1.6418,1.6483,1.6506,1.6555,1.6537,1.6559,1.6565,1.6571,1.6577,1.643,1.6564,1.6563,1.6563,1.6563,1.6562,0,1.6125,1.6143,1.6189,1.6237,1.6276,1.6258,1.6295,1.633,1.6384,1.6415,1.6457,1.6521,1.6572,1.6594,1.6645,1.6679,1.6675,1.6693,1.6692,1.6697,1.6589,1.6572,1.6695,1.6695,1.6695,1.6695,1.6695,1.6695,1.6201,1.6273,1.6277,1.6361,1.638,1.6439,1.6461,1.6491,1.6516,1.6587,1.6629,1.6642,1.667,1.6722,1.6769,1.6774,1.6794,1.6815,1.6818,1.6718,1.6704,1.6692,1.6676,1.6818,1.6819,1.6922,1.6923,1.6923]},{"header":{"parameterUnit":"m.s-1","parameterCategory":1,"la1":30.2991,"la2":30.254,"lo1":-89.0895,"lo2":-89.0444,"dy":0.0017,"dx":0.0017,"nx":28,"ny":28,"refTime":"2024-06-25T09:00:00:Z","depth":0,"parameterNumber":3,"parameterNumberName":"V-component_of_WINDS"},"data":[0,0,0,0,0,0,0,0,0,0,0,0,0,0,0,0,0,0,0,0,0,0,0,0,0,0,0,0,0,0,0,0,0,0,0,0,0,0,0,0,0,0,0,0,0,0,0,0,0,0,0,0,0,0,0,0,0,0,1.729,1.7291,0,1.7374,1.7375,1.7376,1.7353,1.7351,1.735,1.7348,1.7431,1.7434,1.7438,0,0,0,0,0,0,0,0,0,0,0,0,0,1.7105,1.7109,1.729,1.7291,1.7292,1.7374,1.7375,1.7376,1.7353,1.7351,1.7349,1.7347,1.7429,1.7434,1.7438,0,0,0,0,0,0,0,0,0,0,0,0,0,1.7187,1.711,1.729,1.7291,1.7292,1.7374,1.7375,1.7377,1.7354,1.7351,1.7349,1.7346,1.7428,1.7433,1.7439,1.7525,0,0,1.7456,1.7459,0,0,0,0,0,0,0,0,1.7182,1.7194,1.7289,1.7291,1.7292,1.7351,1.734,1.7426,1.7354,1.733,1.7348,1.7345,1.7406,1.7413,1.7434,1.7529,1.7532,1.7457,1.746,1.7463,1.7464,0,0,0,0,0,0,0,1.7177,1.719,1.7323,1.7291,1.7292,1.7285,1.7294,1.7356,1.7381,1.7332,1.733,1.7341,1.7406,1.7429,1.7436,1.7533,1.7457,1.7462,1.7465,1.7467,1.7699,1.7702,0,0,0,0,0,0,1.7171,1.7185,1.7321,1.7326,1.723,1.7291,1.73,1.7334,1.738,1.7385,1.7343,1.7339,1.7421,1.743,1.7439,1.7541,1.7463,1.7468,1.7471,1.7696,1.77,1.7703,0,0,0,0,0,0,1.7167,1.7183,1.7317,1.7255,1.7272,1.7296,1.7335,1.7337,1.736,1.7389,1.7392,1.7362,1.7419,1.7431,1.7503,1.7543,1.7471,1.7476,1.7693,1.7697,1.7701,1.7746,0,0,0,0,0,0,1.7161,1.7182,1.7216,1.7256,1.7275,1.7382,1.7337,1.7341,1.737,1.7367,1.7408,1.7412,1.7418,1.7495,1.7509,1.755,1.748,1.769,1.7695,1.77,1.7741,1.7751,1.776,0,0,0,0,0,1.7155,1.7225,1.7218,1.7234,1.7319,1.7384,1.7395,1.7401,1.7374,1.7407,1.7425,1.7411,1.7537,1.7502,1.7518,1.7561,1.7687,1.7694,1.77,1.7737,1.7749,1.7759,0,0,0,0,0,0,1.7188,1.723,1.7223,1.7308,1.7343,1.738,1.7423,1.7414,1.7456,1.7451,1.7456,1.7465,1.7539,1.7557,1.7518,1.7645,1.7608,1.7617,1.7631,1.7643,1.7652,1.7645,1.7485,0,0,0,0,0,1.7205,1.7256,1.729,1.7361,1.7379,1.7398,1.7427,1.7429,1.7464,1.7478,1.7502,1.7536,1.7583,1.7614,1.7659,1.7743,1.7751,1.778,1.779,1.7797,1.7805,1.7849,1.7862,1.7723,1.7723,1.7723,0,0,1.7241,1.727,1.7302,1.7369,1.7396,1.7447,1.7411,1.7467,1.7504,1.7487,1.7556,1.7574,1.7612,1.7691,1.7726,1.7708,1.7845,1.7805,1.7811,1.7815,1.7857,1.787,1.7882,1.7727,1.7727,1.7726,0,0,1.7332,1.7361,1.7423,1.745,1.7492,1.7504,1.7518,1.7557,1.7569,1.7639,1.7626,1.767,1.7751,1.7778,1.7803,1.7902,1.789,1.7917,1.7966,1.8008,1.8019,1.8029,1.8063,1.8075,1.7925,1.7925,1.7925,0,1.7371,1.7449,1.7455,1.7512,1.7541,1.7528,1.759,1.7616,1.767,1.7689,1.7668,1.7769,1.7794,1.7877,1.7901,1.7922,1.7938,1.7912,1.8018,1.8027,1.8036,1.8069,1.8082,1.7928,1.7927,1.7927,1.7927,0,1.7494,1.7548,1.7593,1.7646,1.768,1.7739,1.7752,1.7785,1.7783,1.7796,1.7866,1.7896,1.7945,1.7965,1.7964,1.8048,1.8036,1.8016,1.7979,1.8053,1.8083,1.8096,1.7932,1.7931,1.793,1.7929,0,0,1.761,1.7664,1.768,1.7703,1.7747,1.7788,1.7846,1.7895,1.7923,1.796,1.8006,1.8075,1.8057,1.8084,1.8086,1.8123,1.8198,1.8099,1.81,1.8115,1.829,1.8304,1.8319,1.819,1.8193,1.8195,1.8287,0,1.7704,1.7806,1.7813,1.7905,1.7953,1.7941,1.799,1.8022,1.8035,1.8077,1.8091,1.8139,1.8112,1.8128,1.8165,1.8181,1.8233,1.8175,1.8232,1.8234,1.8223,1.8335,1.835,1.8436,1.8299,1.8301,1.8302,0,1.7828,1.7869,1.7966,1.8002,1.8022,1.8067,1.8112,1.8153,1.8187,1.8194,1.8224,1.822,1.8276,1.8237,1.8314,1.8274,1.8297,1.8308,1.8312,1.8317,1.8272,1.8342,1.8463,1.8476,1.8321,1.832,1.8319,0,1.7901,1.798,1.8048,1.8068,1.8112,1.8143,1.8162,1.8194,1.8223,1.8261,1.828,1.8324,1.8348,1.8382,1.8388,1.8359,1.8465,1.8426,1.847,1.847,1.8493,1.8491,1.8619,1.851,1.8509,1.8509,1.8509,0,1.8005,1.8064,1.8081,1.8123,1.8188,1.8194,1.8258,1.8275,1.8303,1.8346,1.8338,1.8378,1.8385,1.8427,1.8432,1.8494,1.8505,1.8511,1.8511,1.8511,1.851,1.8526,1.852,1.8513,1.8512,1.8511,1.8511,0,1.8097,1.8111,1.8184,1.8219,1.8229,1.8276,1.8304,1.8343,1.8355,1.841,1.8423,1.8441,1.8489,1.85,1.8557,1.856,1.8633,1.8628,1.8622,1.8621,1.8664,1.8659,1.8806,1.8824,1.8704,1.8705,1.8706,0,1.8163,1.8208,1.8248,1.8277,1.8298,1.8344,1.8373,1.8379,1.841,1.8451,1.8485,1.8532,1.857,1.8647,1.8665,1.8707,1.8703,1.8751,1.8709,1.8707,1.8702,1.8699,1.8703,1.8759,1.876,1.8761,1.8762,0,1.8277,1.8281,1.8324,1.8369,1.8404,1.8439,1.8473,1.8497,1.8507,1.8541,1.8591,1.862,1.8678,1.8724,1.8767,1.8785,1.8775,1.8775,1.8787,1.8787,1.8781,1.8784,1.8643,1.8772,1.8771,1.877,1.877,1.8769,1.8356,1.8396,1.8429,1.8477,1.8503,1.8534,1.8572,1.8588,1.863,1.8678,1.8679,1.8733,1.8763,1.882,1.884,1.8881,1.8865,1.8884,1.8888,1.8892,1.8895,1.8775,1.8889,1.8888,1.8888,1.8888,1.8888,0,1.8469,1.849,1.8533,1.8581,1.8617,1.8606,1.8642,1.8673,1.872,1.8751,1.8788,1.8844,1.8888,1.8909,1.8952,1.898,1.8977,1.8992,1.8989,1.8993,1.8907,1.8892,1.8994,1.8994,1.8994,1.8994,1.8994,1.8994,1.8531,1.8597,1.8604,1.8681,1.8701,1.8754,1.8776,1.8804,1.8828,1.8891,1.8928,1.8941,1.8967,1.9011,1.9051,1.9056,1.9071,1.9088,1.909,1.901,1.8999,1.8989,1.8974,1.9092,1.9092,1.9172,1.9173,1.9174]}]]